Location: Albany
(35.0000°S, 118.0000°E)
Time: 21:19:04
(UTC-04:00)

Atlas Centaur 2 - Visible Passes

Search period start: 29 April 2017 00:00
Search period end: 09 May 2017 00:00
Orbit: 459 x 1314 km, 30.4° (Epoch: 28 April)

Date Brightness Start Highest point End Pass type
(mag) Time Alt. Az. Time Alt. Az. Time Alt. Az.
29 Apr 4.3 16:41:33 12° NNW 16:46:09 23° NNE 16:50:48 10° ENE visible
30 Apr 4.0 16:39:00 18° NNW 16:42:50 28° NNE 16:48:01 10° ENE visible
01 May 5.2 14:53:41 11° NE 14:53:41 11° NE 14:54:20 10° ENE visible
01 May 3.8 16:36:21 24° NNW 16:39:31 34° NNE 16:45:07 10° E visible
02 May 5.1 14:50:56 13° ENE 14:50:56 13° ENE 14:52:02 10° ENE visible
02 May 3.6 16:33:35 30° NNW 16:36:11 40° NNE 16:42:09 10° E visible
03 May 5.1 14:48:06 14° ENE 14:48:06 14° ENE 14:49:23 10° ENE visible
03 May 3.4 16:30:45 37° NNW 16:32:50 45° NNE 16:39:06 10° E visible
03 May 2.9 18:14:58 10° WNW 18:22:04 58° N 18:27:40 10° ENE visible
04 May 5.1 14:45:10 15° ENE 14:45:10 15° ENE 14:46:32 10° E visible
04 May 3.2 16:27:49 44° NNW 16:29:29 51° NNE 16:36:00 10° E visible
04 May 2.9 18:11:31 10° W 18:18:47 59° N 18:24:33 10° ENE visible
05 May 5.1 14:42:11 16° ENE 14:42:11 16° ENE 14:43:33 10° E visible
05 May 3.1 16:24:50 50° NNW 16:26:08 55° N 16:32:52 10° E visible
05 May 3.0 18:08:04 10° W 18:15:29 58° N 18:21:24 10° ENE visible
06 May 5.1 14:39:09 16° E 14:39:09 16° E 14:40:29 10° E visible
06 May 3.1 16:21:48 55° NNW 16:22:46 59° N 16:29:43 10° E visible
06 May 3.1 18:04:38 10° W 18:12:10 56° N 18:18:13 10° ENE visible
07 May 5.2 14:36:05 15° E 14:36:05 15° E 14:37:20 10° E visible
07 May 3.0 16:18:44 60° NNW 16:19:24 62° N 16:26:32 10° E visible
07 May 3.2 18:01:22 11° W 18:08:49 53° NNW 18:15:00 10° ENE visible
08 May 5.2 14:33:00 15° E 14:33:00 15° E 14:34:08 10° E visible
08 May 3.0 16:15:38 63° NNW 16:16:02 63° N 16:23:19 10° E visible
08 May 3.3 17:58:17 12° W 18:05:27 49° NNW 18:11:43 10° ENE visible
